Precipitable_Water
0.42 0.42 0.40 0.40 0.38 0.38 0.38 0.38 0.38 0.38 0.38 0.38 0.38 0.38 0.38 0.38 0.38 0.38 0.40 0.40 0.40 0.40 0.40 0.40 0.42 0.42 0.42 0.42 0.44 0.44 0.44 0.44 0.44 0.44 0.44 0.46 0.46 0.46 0.46 0.46 0.46 0.46 0.46 0.44 0.44 0.44 0.44 0.44 0.44 0.44 0.44 0.44 0.44 0.44 0.44 0.44 0.44 0.44 0.44 0.44 0.44 0.44 0.44 0.44 0.44 0.44 0.44 0.44 0.44
0.42 0.40 0.40 0.38 0.38 0.38 0.36 0.36 0.36 0.38 0.38 0.38 0.38 0.38 0.38 0.38 0.38 0.38 0.38 0.38 0.40 0.40 0.40 0.40 0.42 0.42 0.42 0.42 0.42 0.42 0.42 0.42 0.42 0.42 0.44 0.44 0.44 0.46 0.46 0.46 0.46 0.46 0.46 0.46 0.46 0.44 0.44 0.44 0.44 0.44 0.44 0.44 0.44 0.42 0.44 0.44 0.44 0.44 0.44 0.44 0.44 0.44 0.44 0.44 0.44 0.44 0.44 0.44 0.46
0.40 0.38 0.38 0.36 0.36 0.36 0.36 0.36 0.36 0.36 0.38 0.38 0.38 0.38 0.38 0.38 0.38 0.38 0.38 0.38 0.40 0.40 0.40 0.40 0.40 0.40 0.40 0.40 0.42 0.42 0.42 0.42 0.42 0.42 0.42 0.42 0.42 0.44 0.44 0.44 0.44 0.46 0.46 0.46 0.46 0.46 0.46 0.46 0.44 0.44 0.44 0.44 0.42 0.42 0.42 0.44 0.44 0.44 0.44 0.44 0.44 0.44 0.44 0.44 0.44 0.44 0.46 0.46 0.46
0.38 0.38 0.36 0.36 0.36 0.36 0.36 0.36 0.36 0.36 0.36 0.38 0.38 0.38 0.38 0.38 0.38 0.38 0.38 0.38 0.38 0.40 0.40 0.40 0.40 0.40 0.40 0.40 0.40 0.42 0.42 0.42 0.42 0.42 0.42 0.42 0.42 0.42 0.42 0.42 0.44 0.44 0.44 0.46 0.46 0.46 0.46 0.46 0.46 0.46 0.44 0.44 0.44 0.42 0.42 0.42 0.44 0.44 0.44 0.44 0.44 0.44 0.44 0.44 0.44 0.44 0.46 0.46 0.44
0.38 0.36 0.36 0.36 0.36 0.36 0.36 0.36 0.36 0.36 0.36 0.38 0.38 0.38 0.38 0.38 0.38 0.38 0.38 0.38 0.38 0.38 0.38 0.40 0.40 0.40 0.40 0.40 0.40 0.40 0.40 0.42 0.42 0.42 0.42 0.42 0.42 0.42 0.42 0.42 0.42 0.42 0.42 0.44 0.44 0.44 0.46 0.44 0.44 0.44 0.44 0.44 0.44 0.44 0.44 0.44 0.44 0.44 0.44 0.44 0.44 0.44 0.44 0.44 0.44 0.44 0.44 0.44 0.44
0.36 0.36 0.36 0.36 0.36 0.36 0.36 0.38 0.36 0.36 0.38 0.38 0.36 0.36 0.36 0.38 0.38 0.38 0.38 0.38 0.38 0.38 0.40 0.40 0.40 0.40 0.40 0.40 0.40 0.40 0.40 0.40 0.42 0.42 0.40 0.40 0.42 0.42 0.40 0.40 0.40 0.42 0.42 0.42 0.42 0.42 0.42 0.42 0.42 0.42 0.42 0.44 0.44 0.44 0.44 0.44 0.44 0.44 0.42 0.42 0.42 0.42 0.42 0.42 0.42 0.44 0.44 0.44 0.42
0.36 0.36 0.36 0.38 0.38 0.38 0.38 0.38 0.38 0.38 0.38 0.38 0.36 0.36 0.36 0.36 0.38 0.38 0.38 0.38 0.38 0.38 0.40 0.40 0.40 0.40 0.40 0.40 0.40 0.40 0.40 0.40 0.40 0.40 0.40 0.40 0.40 0.40 0.40 0.40 0.40 0.40 0.40 0.40 0.40 0.40 0.40 0.40 0.40 0.40 0.40 0.42 0.42 0.42 0.42 0.42 0.42 0.42 0.42 0.42 0.42 0.42 0.42 0.42 0.42 0.42 0.42 0.42 0.40
0.38 0.38 0.38 0.38 0.38 0.38 0.38 0.38 0.38 0.38 0.38 0.38 0.36 0.36 0.36 0.38 0.38 0.38 0.38 0.38 0.40 0.40 0.40 0.40 0.40 0.40 0.40 0.40 0.40 0.40 0.40 0.40 0.40 0.40 0.40 0.40 0.40 0.40 0.40 0.40 0.40 0.40 0.40 0.40 0.40 0.40 0.38 0.40 0.40 0.38 0.38 0.40 0.40 0.40 0.40 0.42 0.42 0.40 0.40 0.40 0.42 0.42 0.42 0.42 0.42 0.42 0.42 0.40 0.40
0.38 0.38 0.38 0.38 0.38 0.38 0.38 0.38 0.38 0.38 0.38 0.38 0.38 0.38 0.38 0.38 0.38 0.40 0.40 0.40 0.40 0.40 0.40 0.40 0.40 0.40 0.40 0.38 0.38 0.38 0.38 0.38 0.38 0.38 0.38 0.38 0.38 0.38 0.38 0.38 0.38 0.38 0.38 0.38 0.36 0.36 0.38 0.38 0.38 0.38 0.38 0.38 0.38 0.38 0.40 0.40 0.40 0.40 0.38 0.38 0.40 0.40 0.40 0.42 0.42 0.42 0.42 0.40 0.40
0.36 0.36 0.38 0.38 0.38 0.38 0.38 0.38 0.38 0.38 0.38 0.38 0.38 0.38 0.38 0.38 0.40 0.40 0.40 0.40 0.40 0.40 0.38 0.38 0.38 0.38 0.38 0.38 0.38 0.38 0.36 0.36 0.36 0.36 0.36 0.36 0.36 0.34 0.34 0.34 0.34 0.34 0.34 0.36 0.34 0.34 0.34 0.36 0.36 0.36 0.36 0.36 0.36 0.38 0.38 0.38 0.38 0.38 0.38 0.38 0.38 0.38 0.38 0.40 0.40 0.40 0.40 0.38 0.38
0.36 0.36 0.36 0.38 0.38 0.38 0.38 0.38 0.38 0.38 0.38 0.36 0.38 0.38 0.38 0.38 0.38 0.38 0.38 0.38 0.38 0.38 0.36 0.38 0.36 0.36 0.36 0.36 0.36 0.34 0.34 0.34 0.34 0.32 0.32 0.32 0.32 0.32 0.32 0.32 0.32 0.32 0.32 0.30 0.32 0.32 0.32 0.32 0.32 0.32 0.34 0.34 0.36 0.36 0.36 0.38 0.36 0.36 0.36 0.36 0.36 0.36 0.36 0.36 0.38 0.38 0.38 0.36 0.36
0.36 0.36 0.36 0.36 0.36 0.36 0.36 0.36 0.36 0.36 0.36 0.36 0.36 0.36 0.36 0.36 0.36 0.36 0.36 0.36 0.34 0.34 0.34 0.34 0.34 0.34 0.32 0.32 0.32 0.32 0.32 0.32 0.30 0.30 0.30 0.30 0.30 0.30 0.30 0.30 0.30 0.30 0.30 0.28 0.30 0.30 0.30 0.30 0.30 0.30 0.30 0.32 0.32 0.34 0.34 0.34 0.32 0.32 0.32 0.34 0.34 0.34 0.34 0.34 0.36 0.36 0.36 0.36 0.36
0.36 0.36 0.36 0.36 0.36 0.36 0.36 0.34 0.34 0.34 0.34 0.34 0.34 0.34 0.34 0.34 0.34 0.34 0.32 0.32 0.32 0.32 0.32 0.32 0.32 0.30 0.30 0.30 0.30 0.30 0.28 0.28 0.28 0.28 0.28 0.28 0.28 0.28 0.28 0.28 0.28 0.28 0.28 0.28 0.28 0.28 0.28 0.28 0.28 0.28 0.28 0.28 0.30 0.30 0.30 0.30 0.30 0.30 0.30 0.30 0.32 0.32 0.32 0.32 0.32 0.32 0.32 0.32 0.34
0.36 0.36 0.34 0.34 0.34 0.34 0.34 0.32 0.32 0.32 0.32 0.30 0.32 0.32 0.32 0.32 0.32 0.30 0.30 0.30 0.30 0.28 0.28 0.28 0.28 0.28 0.28 0.28 0.28 0.28 0.26 0.26 0.26 0.26 0.26 0.26 0.26 0.26 0.26 0.26 0.28 0.28 0.28 0.28 0.28 0.28 0.28 0.28 0.28 0.28 0.28 0.28 0.28 0.28 0.30 0.30 0.30 0.30 0.30 0.30 0.30 0.30 0.30 0.30 0.30 0.30 0.32 0.32 0.32
0.34 0.34 0.34 0.34 0.32 0.32 0.32 0.32 0.30 0.30 0.30 0.30 0.30 0.30 0.30 0.30 0.30 0.28 0.28 0.28 0.28 0.28 0.28 0.26 0.26 0.26 0.26 0.26 0.26 0.26 0.26 0.26 0.26 0.26 0.26 0.26 0.26 0.26 0.26 0.26 0.26 0.26 0.26 0.26 0.26 0.28 0.28 0.28 0.28 0.28 0.28 0.28 0.28 0.28 0.28 0.28 0.28 0.28 0.28 0.28 0.28 0.28 0.28 0.30 0.30 0.30 0.30 0.30 0.30
0.32 0.32 0.32 0.32 0.30 0.30 0.30 0.30 0.30 0.28 0.28 0.28 0.28 0.28 0.28 0.28 0.28 0.28 0.28 0.26 0.26 0.26 0.26 0.26 0.26 0.26 0.26 0.26 0.26 0.26 0.26 0.26 0.26 0.24 0.24 0.24 0.26 0.26 0.26 0.26 0.26 0.26 0.26 0.26 0.26 0.26 0.26 0.26 0.26 0.26 0.26 0.26 0.28 0.26 0.26 0.28 0.28 0.28 0.28 0.28 0.28 0.28 0.28 0.28 0.30 0.30 0.30 0.30 0.30
0.32 0.30 0.30 0.30 0.30 0.28 0.28 0.28 0.28 0.28 0.28 0.28 0.28 0.28 0.28 0.28 0.28 0.26 0.26 0.26 0.26 0.26 0.24 0.24 0.24 0.26 0.26 0.26 0.26 0.26 0.26 0.24 0.24 0.24 0.24 0.24 0.24 0.24 0.24 0.24 0.24 0.24 0.24 0.24 0.24 0.24 0.24 0.26 0.26 0.26 0.26 0.26 0.26 0.26 0.26 0.26 0.26 0.26 0.26 0.28 0.28 0.28 0.28 0.28 0.28 0.30 0.30 0.30 0.30
0.30 0.30 0.28 0.28 0.28 0.28 0.28 0.28 0.28 0.28 0.28 0.28 0.28 0.28 0.26 0.26 0.26 0.26 0.26 0.26 0.26 0.24 0.24 0.24 0.24 0.24 0.24 0.24 0.24 0.26 0.24 0.24 0.24 0.24 0.24 0.24 0.24 0.24 0.24 0.24 0.24 0.24 0.24 0.24 0.24 0.24 0.24 0.24 0.24 0.26 0.26 0.26 0.26 0.26 0.26 0.26 0.26 0.26 0.26 0.26 0.28 0.28 0.28 0.28 0.28 0.30 0.30 0.30 0.30
0.28 0.28 0.28 0.28 0.28 0.28 0.28 0.28 0.28 0.26 0.26 0.26 0.26 0.26 0.26 0.26 0.26 0.26 0.26 0.26 0.24 0.24 0.24 0.24 0.24 0.24 0.24 0.24 0.24 0.24 0.24 0.24 0.24 0.24 0.24 0.24 0.24 0.24 0.24 0.24 0.24 0.24 0.24 0.24 0.24 0.24 0.24 0.24 0.24 0.24 0.24 0.24 0.24 0.24 0.26 0.26 0.26 0.26 0.26 0.26 0.26 0.28 0.28 0.28 0.28 0.30 0.30 0.30 0.30
0.28 0.28 0.28 0.28 0.28 0.28 0.26 0.26 0.26 0.26 0.26 0.26 0.26 0.26 0.26 0.26 0.26 0.24 0.24 0.24 0.24 0.24 0.24 0.24 0.24 0.24 0.24 0.24 0.24 0.24 0.24 0.24 0.24 0.24 0.24 0.24 0.24 0.24 0.24 0.24 0.24 0.24 0.24 0.24 0.24 0.24 0.24 0.24 0.24 0.24 0.24 0.24 0.24 0.24 0.24 0.24 0.26 0.26 0.26 0.26 0.26 0.26 0.28 0.28 0.30 0.30 0.30 0.30 0.32
0.28 0.28 0.28 0.28 0.28 0.26 0.26 0.26 0.26 0.26 0.26 0.26 0.26 0.24 0.24 0.24 0.24 0.24 0.24 0.24 0.24 0.24 0.24 0.24 0.24 0.24 0.24 0.24 0.24 0.24 0.24 0.24 0.24 0.24 0.24 0.24 0.24 0.24 0.24 0.24 0.24 0.24 0.24 0.24 0.24 0.24 0.24 0.24 0.24 0.24 0.24 0.24 0.24 0.24 0.24 0.24 0.24 0.26 0.26 0.26 0.26 0.28 0.28 0.30 0.30 0.30 0.32 0.32 0.32
0.28 0.28 0.28 0.28 0.28 0.26 0.26 0.26 0.26 0.26 0.26 0.24 0.24 0.24 0.24 0.24 0.24 0.24 0.24 0.24 0.24 0.24 0.24 0.24 0.24 0.22 0.22 0.22 0.22 0.22 0.24 0.24 0.24 0.24 0.24 0.24 0.24 0.24 0.24 0.24 0.24 0.24 0.24 0.24 0.24 0.24 0.24 0.24 0.24 0.24 0.24 0.24 0.24 0.24 0.24 0.24 0.26 0.26 0.26 0.26 0.28 0.28 0.28 0.30 0.30 0.32 0.32 0.32 0.32
0.28 0.28 0.28 0.28 0.28 0.26 0.26 0.26 0.26 0.26 0.24 0.24 0.24 0.24 0.24 0.24 0.24 0.24 0.24 0.24 0.24 0.24 0.24 0.24 0.24 0.22 0.22 0.22 0.22 0.22 0.22 0.24 0.22 0.22 0.24 0.24 0.24 0.24 0.24 0.24 0.24 0.24 0.24 0.24 0.24 0.24 0.24 0.24 0.24 0.24 0.26 0.26 0.26 0.26 0.26 0.26 0.26 0.26 0.26 0.26 0.28 0.28 0.30 0.30 0.32 0.32 0.32 0.32 0.34
0.28 0.28 0.28 0.28 0.26 0.26 0.26 0.26 0.24 0.24 0.24 0.24 0.24 0.24 0.24 0.24 0.24 0.24 0.24 0.24 0.24 0.24 0.24 0.24 0.24 0.24 0.24 0.24 0.24 0.22 0.22 0.22 0.22 0.22 0.22 0.22 0.22 0.22 0.24 0.24 0.24 0.24 0.24 0.24 0.24 0.24 0.24 0.24 0.24 0.26 0.26 0.26 0.26 0.26 0.26 0.28 0.28 0.28 0.28 0.28 0.28 0.30 0.30 0.32 0.32 0.32 0.32 0.34 0.34
0.26 0.26 0.26 0.26 0.26 0.26 0.26 0.26 0.24 0.24 0.24 0.24 0.24 0.24 0.24 0.24 0.24 0.24 0.24 0.24 0.24 0.22 0.22 0.24 0.24 0.24 0.24 0.24 0.24 0.22 0.22 0.22 0.22 0.22 0.22 0.22 0.22 0.22 0.22 0.22 0.22 0.24 0.24 0.24 0.24 0.24 0.24 0.26 0.26 0.26 0.28 0.28 0.28 0.28 0.28 0.28 0.28 0.28 0.28 0.28 0.30 0.30 0.30 0.30 0.32 0.32 0.34 0.34 0.36
0.26 0.26 0.26 0.26 0.24 0.24 0.24 0.24 0.24 0.24 0.24 0.24 0.24 0.24 0.24 0.24 0.24 0.24 0.24 0.22 0.22 0.22 0.22 0.22 0.22 0.22 0.24 0.22 0.22 0.22 0.22 0.22 0.22 0.22 0.22 0.22 0.22 0.22 0.22 0.22 0.24 0.24 0.24 0.24 0.24 0.24 0.26 0.26 0.26 0.28 0.28 0.28 0.28 0.28 0.28 0.28 0.28 0.30 0.30 0.30 0.30 0.30 0.30 0.30 0.32 0.32 0.34 0.34 0.36
0.24 0.24 0.24 0.24 0.24 0.24 0.24 0.24 0.24 0.24 0.24 0.24 0.24 0.24 0.24 0.24 0.24 0.24 0.22 0.22 0.22 0.22 0.22 0.22 0.22 0.22 0.22 0.22 0.22 0.22 0.22 0.22 0.22 0.22 0.22 0.22 0.22 0.22 0.22 0.22 0.22 0.24 0.24 0.24 0.24 0.26 0.26 0.26 0.28 0.28 0.28 0.28 0.28 0.28 0.28 0.28 0.30 0.30 0.30 0.30 0.30 0.30 0.30 0.32 0.32 0.34 0.34 0.36 0.36
0.24 0.24 0.24 0.24 0.24 0.22 0.22 0.24 0.24 0.22 0.22 0.22 0.22 0.22 0.24 0.24 0.22 0.22 0.22 0.22 0.22 0.22 0.22 0.22 0.22 0.22 0.22 0.22 0.22 0.22 0.22 0.22 0.22 0.22 0.22 0.22 0.22 0.22 0.22 0.22 0.22 0.24 0.24 0.24 0.26 0.26 0.26 0.26 0.26 0.28 0.28 0.28 0.30 0.30 0.30 0.30 0.30 0.30 0.30 0.30 0.32 0.32 0.32 0.32 0.32 0.34 0.34 0.36 0.36
0.22 0.22 0.22 0.22 0.22 0.22 0.22 0.22 0.22 0.22 0.22 0.22 0.22 0.22 0.22 0.22 0.22 0.22 0.22 0.22 0.22 0.22 0.22 0.22 0.22 0.22 0.22 0.22 0.22 0.22 0.22 0.22 0.22 0.22 0.22 0.22 0.22 0.22 0.22 0.22 0.22 0.24 0.24 0.24 0.26 0.26 0.26 0.26 0.26 0.28 0.28 0.30 0.30 0.30 0.30 0.30 0.30 0.30 0.30 0.32 0.32 0.32 0.32 0.34 0.34 0.34 0.34 0.34 0.36
0.22 0.22 0.22 0.22 0.22 0.22 0.22 0.22 0.22 0.22 0.22 0.22 0.22 0.22 0.22 0.22 0.22 0.22 0.22 0.22 0.22 0.22 0.22 0.22 0.22 0.22 0.22 0.22 0.22 0.22 0.22 0.22 0.22 0.22 0.22 0.22 0.22 0.22 0.22 0.22 0.24 0.24 0.24 0.24 0.24 0.26 0.26 0.26 0.28 0.28 0.28 0.30 0.30 0.30 0.32 0.32 0.32 0.32 0.32 0.32 0.34 0.34 0.34 0.34 0.34 0.34 0.36 0.36 0.38
0.22 0.22 0.22 0.22 0.22 0.22 0.22 0.22 0.22 0.22 0.22 0.22 0.22 0.22 0.22 0.22 0.22 0.22 0.22 0.22 0.22 0.22 0.22 0.22 0.22 0.22 0.22 0.22 0.22 0.22 0.22 0.22 0.22 0.22 0.22 0.22 0.22 0.22 0.22 0.22 0.22 0.24 0.24 0.24 0.24 0.26 0.26 0.28 0.28 0.28 0.30 0.30 0.30 0.32 0.32 0.32 0.32 0.32 0.32 0.34 0.34 0.34 0.36 0.36 0.36 0.36 0.38 0.38 0.40
0.22 0.22 0.22 0.22 0.22 0.20 0.22 0.22 0.22 0.22 0.22 0.22 0.22 0.22 0.22 0.20 0.20 0.22 0.22 0.22 0.22 0.22 0.22 0.20 0.20 0.20 0.20 0.20 0.22 0.22 0.22 0.22 0.22 0.22 0.22 0.22 0.22 0.22 0.22 0.22 0.22 0.24 0.24 0.24 0.24 0.26 0.26 0.28 0.28 0.30 0.30 0.30 0.32 0.32 0.32 0.32 0.34 0.34 0.34 0.34 0.36 0.36 0.36 0.36 0.36 0.38 0.38 0.40 0.38
0.22 0.22 0.22 0.22 0.20 0.20 0.20 0.20 0.22 0.22 0.22 0.20 0.20 0.20 0.20 0.20 0.20 0.20 0.22 0.22 0.22 0.22 0.20 0.20 0.20 0.20 0.20 0.20 0.20 0.20 0.22 0.22 0.22 0.22 0.22 0.22 0.22 0.22 0.22 0.22 0.22 0.24 0.24 0.24 0.26 0.26 0.26 0.28 0.28 0.30 0.30 0.32 0.32 0.32 0.34 0.34 0.34 0.34 0.34 0.34 0.34 0.34 0.34 0.36 0.36 0.36 0.36 0.36 0.34
0.22 0.22 0.22 0.22 0.20 0.20 0.20 0.20 0.20 0.20 0.20 0.20 0.20 0.20 0.20 0.20 0.20 0.20 0.20 0.20 0.20 0.20 0.20 0.20 0.20 0.20 0.20 0.22 0.22 0.22 0.22 0.22 0.22 0.22 0.22 0.22 0.22 0.22 0.22 0.22 0.22 0.24 0.24 0.24 0.26 0.26 0.26 0.28 0.28 0.30 0.30 0.32 0.32 0.34 0.34 0.34 0.34 0.32 0.32 0.32 0.32 0.32 0.32 0.34 0.34 0.34 0.34 0.34 0.34
0.22 0.22 0.22 0.20 0.20 0.20 0.20 0.20 0.20 0.20 0.20 0.20 0.20 0.20 0.20 0.20 0.20 0.20 0.20 0.20 0.20 0.20 0.20 0.20 0.20 0.22 0.22 0.22 0.22 0.22 0.22 0.22 0.22 0.22 0.22 0.22 0.22 0.22 0.22 0.22 0.22 0.24 0.24 0.24 0.26 0.26 0.26 0.28 0.28 0.30 0.30 0.32 0.32 0.34 0.34 0.32 0.32 0.32 0.32 0.32 0.32 0.32 0.32 0.34 0.34 0.34 0.34 0.34 0.36
0.22 0.22 0.22 0.20 0.20 0.20 0.20 0.20 0.20 0.20 0.20 0.20 0.20 0.20 0.20 0.20 0.20 0.20 0.20 0.20 0.20 0.20 0.20 0.20 0.20 0.20 0.20 0.20 0.20 0.22 0.22 0.22 0.22 0.22 0.22 0.22 0.22 0.22 0.22 0.22 0.22 0.24 0.24 0.24 0.26 0.26 0.26 0.28 0.28 0.30 0.30 0.32 0.32 0.32 0.32 0.32 0.32 0.32 0.32 0.32 0.32 0.32 0.34 0.34 0.36 0.36 0.36 0.38 0.38
0.22 0.22 0.22 0.22 0.20 0.20 0.20 0.20 0.20 0.20 0.20 0.20 0.20 0.20 0.20 0.20 0.20 0.20 0.20 0.20 0.20 0.20 0.20 0.20 0.20 0.20 0.20 0.20 0.20 0.20 0.22 0.22 0.22 0.22 0.22 0.22 0.22 0.22 0.22 0.22 0.22 0.24 0.24 0.26 0.26 0.26 0.28 0.28 0.30 0.30 0.32 0.32 0.32 0.32 0.32 0.32 0.32 0.32 0.32 0.32 0.34 0.34 0.34 0.36 0.36 0.38 0.38 0.38 0.38
0.22 0.22 0.22 0.22 0.22 0.22 0.20 0.20 0.20 0.20 0.20 0.20 0.20 0.20 0.20 0.20 0.20 0.20 0.20 0.20 0.20 0.20 0.20 0.20 0.20 0.20 0.20 0.20 0.20 0.22 0.22 0.22 0.22 0.22 0.22 0.22 0.22 0.22 0.22 0.22 0.22 0.24 0.24 0.26 0.26 0.28 0.28 0.30 0.30 0.32 0.32 0.32 0.32 0.32 0.32 0.32 0.32 0.32 0.34 0.34 0.34 0.36 0.36 0.38 0.38 0.38 0.40 0.40 0.40
0.22 0.22 0.22 0.22 0.22 0.22 0.22 0.20 0.20 0.20 0.20 0.20 0.20 0.20 0.20 0.20 0.20 0.20 0.20 0.20 0.20 0.20 0.20 0.20 0.20 0.20 0.20 0.20 0.20 0.22 0.22 0.22 0.22 0.22 0.22 0.22 0.22 0.22 0.22 0.22 0.24 0.24 0.26 0.26 0.28 0.28 0.28 0.30 0.30 0.32 0.32 0.34 0.34 0.34 0.34 0.34 0.34 0.34 0.34 0.34 0.36 0.36 0.38 0.40 0.40 0.40 0.40 0.38 0.38
0.24 0.22 0.22 0.22 0.22 0.22 0.22 0.20 0.20 0.22 0.22 0.20 0.20 0.20 0.20 0.20 0.20 0.20 0.20 0.20 0.20 0.20 0.20 0.20 0.20 0.20 0.20 0.22 0.20 0.20 0.20 0.22 0.22 0.22 0.22 0.22 0.22 0.22 0.22 0.24 0.24 0.24 0.26 0.26 0.28 0.28 0.30 0.30 0.32 0.32 0.34 0.34 0.34 0.34 0.34 0.34 0.34 0.34 0.34 0.34 0.36 0.38 0.38 0.40 0.40 0.40 0.38 0.38 0.38
0.24 0.24 0.24 0.22 0.22 0.22 0.22 0.22 0.22 0.22 0.22 0.22 0.20 0.20 0.20 0.20 0.20 0.20 0.20 0.20 0.20 0.20 0.20 0.20 0.20 0.20 0.20 0.22 0.20 0.20 0.20 0.20 0.22 0.22 0.22 0.22 0.22 0.22 0.24 0.24 0.24 0.24 0.26 0.26 0.28 0.30 0.30 0.32 0.32 0.32 0.34 0.34 0.34 0.34 0.36 0.36 0.34 0.34 0.34 0.34 0.36 0.38 0.38 0.40 0.40 0.38 0.38 0.38 0.40
Wind_Speed
33 34 34 34 34 34 34 34 34 35 35 35 35 35 35 35 36 36 36 36 36 37 37 37 37 37 38 39 39 39 40 40 40 41 41 42 42 43 43 43 44 44 45 45 45 46 46 46 46 47 47 47 48 48 48 48 49 49 49 50 50 50 51 51 52 52 53 53 53
34 34 34 35 35 35 35 35 35 35 36 36 36 36 36 36 37 37 37 37 37 37 37 38 38 38 39 39 39 40 40 40 41 41 42 42 43 43 44 44 44 45 45 46 46 46 46 47 47 47 47 48 48 49 49 49 49 50 50 51 51 51 52 52 53 53 54 54 54
35 35 35 35 35 35 36 36 36 36 37 37 37 37 37 37 37 37 37 38 38 38 38 38 38 39 39 40 40 40 40 41 41 42 42 43 43 44 44 44 45 45 46 46 46 47 47 47 48 48 48 49 49 49 50 50 50 51 51 52 52 52 52 53 53 54 54 54 55
35 35 36 36 36 36 37 37 37 37 37 37 38 38 38 38 38 38 38 38 39 39 39 39 39 40 40 40 41 41 42 42 42 43 43 44 44 44 45 45 45 46 46 47 47 48 48 48 48 49 49 50 50 50 51 51 51 51 52 52 52 53 53 54 54 54 54 55 55
36 36 36 37 37 37 37 38 38 38 38 38 38 39 39 39 39 39 39 39 39 39 40 40 40 41 41 42 42 43 43 43 44 44 44 45 45 45 46 46 46 47 47 47 48 48 49 49 49 50 50 51 51 51 51 52 52 52 52 53 53 53 54 54 55 55 55 55 56
37 37 37 38 38 38 38 38 39 39 39 39 39 39 39 39 39 40 40 40 40 41 41 42 42 42 43 43 44 44 44 45 45 46 46 46 47 47 47 48 48 48 48 49 49 49 50 50 50 51 51 51 52 52 52 53 53 53 53 54 54 54 54 55 55 56 56 57 57
37 38 38 38 39 39 39 39 39 40 40 40 40 40 40 40 40 41 41 41 42 42 42 42 43 43 44 44 45 45 46 46 47 47 48 48 48 49 49 49 50 50 50 50 50 50 51 51 51 51 52 52 53 53 53 54 54 54 55 55 55 55 56 56 57 57 58 58 59
38 39 39 39 39 40 40 40 40 40 40 40 41 41 41 41 42 42 42 42 42 43 43 43 44 45 45 46 46 47 47 48 48 49 49 49 50 50 51 51 51 51 51 51 51 51 52 52 52 52 53 53 54 54 54 55 55 56 56 57 57 57 57 58 58 59 59 60 61
39 39 40 40 40 40 41 41 41 41 41 41 42 42 42 42 42 43 43 43 43 44 44 45 45 46 46 47 48 48 48 49 49 50 50 51 51 51 52 52 52 52 52 52 52 52 53 53 53 53 54 54 55 55 56 56 57 57 58 58 59 59 59 60 60 60 61 61 62
40 40 40 41 41 41 41 41 42 42 42 42 42 43 43 43 43 43 43 44 44 45 45 46 46 47 48 48 49 49 49 50 50 51 51 51 52 52 52 52 52 52 53 52 52 53 53 53 54 54 55 55 56 56 57 58 58 59 59 60 60 61 62 62 62 62 63 63 63
40 41 41 41 41 42 42 42 42 42 42 43 43 43 43 43 44 44 44 45 45 46 46 47 47 48 48 49 49 50 50 50 51 51 52 52 52 52 52 52 52 53 53 53 53 53 53 54 54 55 56 56 57 58 58 59 60 60 61 62 62 63 64 64 64 64 64 65 65
41 41 41 42 42 42 42 42 42 42 43 43 43 43 44 44 44 45 45 46 46 47 47 48 48 49 49 49 50 50 51 51 51 52 52 52 52 52 52 53 53 53 53 53 53 53 54 54 55 56 57 58 58 58 59 60 61 62 62 63 64 65 65 66 66 65 65 65 65
41 42 42 42 42 42 42 43 43 43 43 43 43 44 44 44 45 45 46 46 47 47 48 48 49 49 49 50 50 50 51 51 51 52 52 52 52 52 52 53 53 53 53 53 54 54 54 55 56 57 58 59 59 59 60 61 62 63 64 65 65 65 66 66 66 65 65 64 64
42 42 42 42 42 43 43 43 43 43 43 44 44 44 45 45 45 46 46 47 47 48 48 49 49 49 50 50 50 51 51 51 52 52 52 52 52 52 53 53 53 53 53 54 54 55 55 56 57 58 59 60 60 61 62 63 63 64 65 65 65 65 65 65 65 64 63 63 62
42 42 42 42 43 43 43 43 43 43 44 44 45 45 45 46 46 47 47 48 48 48 49 49 49 50 50 50 51 51 51 51 52 52 52 52 52 53 53 53 53 54 54 55 55 56 56 57 58 59 60 61 62 63 63 64 64 64 64 64 64 64 64 63 62 61 61 60 60
42 42 43 43 43 43 43 44 44 44 44 45 45 46 46 46 47 47 48 48 48 49 49 49 50 50 50 51 51 51 51 51 52 52 52 52 53 53 53 54 54 54 55 56 56 57 58 58 59 60 61 62 63 63 64 64 64 64 63 63 62 62 61 61 60 59 58 57 57
43 43 43 43 43 44 44 44 44 45 45 46 46 46 47 47 47 48 48 48 49 49 49 50 50 50 51 51 51 51 51 51 52 52 52 53 53 54 54 54 55 55 56 57 57 58 59 60 61 62 62 63 63 63 63 63 63 62 61 61 60 59 59 58 57 56 55 55 54
43 43 43 44 44 44 45 45 45 46 46 46 47 47 47 47 48 48 48 49 49 49 50 50 51 51 51 51 51 51 51 52 52 52 53 53 54 54 55 55 56 56 57 58 59 60 61 62 62 63 63 63 63 62 62 61 60 60 59 58 58 57 56 55 54 53 52 52 52
43 44 44 44 44 45 45 46 46 46 46 47 47 47 48 48 48 49 49 49 50 50 50 51 51 51 51 51 51 52 52 52 53 53 54 54 55 55 56 56 57 58 58 59 60 61 62 62 62 62 62 61 61 60 60 59 58 57 57 56 55 54 53 52 52 51 50 50 49
44 44 44 44 45 45 46 46 46 47 47 47 47 48 48 48 49 49 49 50 50 50 51 51 51 51 52 52 52 52 52 52 53 54 54 55 55 56 57 58 58 59 60 61 61 62 62 62 61 61 60 59 59 58 57 57 56 55 54 53 52 51 51 50 49 48 48 47 47
44 44 45 45 45 46 46 46 47 47 47 48 48 48 49 49 49 49 50 50 51 51 51 51 52 52 52 52 52 53 53 53 54 54 55 56 56 57 58 59 60 60 61 61 61 61 61 60 60 59 58 57 57 56 55 54 53 53 52 51 50 49 48 47 47 46 46 45 45
44 45 45 46 46 46 47 47 47 47 48 48 48 49 49 49 50 50 50 51 51 51 51 52 52 52 52 52 53 53 54 54 54 55 56 56 57 58 59 60 60 61 61 61 60 60 59 58 58 57 56 55 54 54 53 52 51 50 50 49 48 47 46 46 45 45 44 44 43
45 45 46 46 46 47 47 47 48 48 48 48 49 49 49 50 50 50 51 51 51 51 51 52 52 52 52 53 53 54 54 55 55 56 57 57 58 59 60 60 60 60 60 59 59 58 57 56 55 54 53 52 52 51 51 50 49 48 48 47 46 46 45 45 44 44 44 43 42
45 46 46 46 47 47 47 48 48 48 49 49 49 50 50 50 51 51 51 51 51 52 52 52 52 52 53 53 54 54 55 56 57 57 58 59 59 60 60 60 60 59 59 57 56 55 55 54 53 52 51 50 50 49 48 48 47 46 46 45 45 44 44 44 43 43 42 42 41
46 46 47 47 47 47 48 48 48 49 49 50 50 50 51 51 51 51 51 52 52 52 52 52 53 53 53 54 54 55 56 56 57 58 59 60 60 60 60 59 58 58 57 56 55 54 53 52 51 50 49 49 48 48 47 46 46 45 45 44 43 43 43 43 43 42 41 40 40
46 47 47 47 48 48 48 49 49 50 50 50 51 51 51 51 51 51 52 52 52 52 52 53 53 53 54 54 55 56 56 57 58 59 59 60 60 59 59 58 57 56 55 54 54 53 52 51 50 49 48 47 47 46 46 45 45 44 44 43 43 42 42 42 42 41 40 39 39
47 47 47 48 48 48 49 49 50 50 51 51 51 51 51 52 52 52 52 52 52 52 53 53 53 54 54 55 56 57 57 58 59 59 59 59 59 58 58 57 56 54 53 53 52 51 51 50 49 48 47 46 46 45 45 45 44 44 43 42 42 42 41 41 40 40 39 38 38
47 48 48 48 49 49 50 50 50 51 51 51 52 52 52 52 52 52 52 52 52 53 53 53 54 54 55 56 57 58 58 59 59 59 59 58 58 57 57 55 54 53 52 51 51 50 49 48 47 47 46 46 45 45 44 44 44 43 42 42 41 41 40 40 39 38 38 37 37
48 48 48 49 49 50 50 51 51 51 52 52 52 52 52 52 52 52 52 53 53 53 53 54 55 55 56 57 58 58 59 59 58 58 58 57 57 56 55 54 53 52 51 50 50 49 48 47 46 46 45 45 44 44 44 43 43 42 42 41 40 40 40 39 39 38 38 38 37
48 49 49 49 50 50 51 51 51 52 52 52 52 52 52 52 52 52 53 53 53 54 54 55 56 56 57 58 58 58 58 58 57 57 56 56 56 55 54 53 52 51 50 49 48 47 46 46 45 45 45 45 45 44 44 43 43 42 42 41 40 40 40 39 39 38 38 37 37
49 49 50 50 51 51 51 52 52 52 52 52 52 52 52 52 52 53 53 53 54 55 55 56 57 57 58 58 58 58 58 57 57 56 55 55 55 54 53 52 51 49 48 48 47 46 45 45 45 45 45 45 44 44 43 43 42 42 41 41 40 40 39 39 38 37 37 37 36
49 50 50 51 51 52 52 52 52 52 52 52 52 52 52 52 53 53 53 54 55 56 56 57 57 58 58 58 58 57 57 56 56 55 54 54 53 53 52 51 49 48 47 46 46 45 45 44 44 45 45 45 44 44 43 43 42 41 41 40 39 39 38 37 36 36 36 36 36
50 50 51 51 52 52 52 52 52 52 52 52 52 52 53 53 53 54 54 55 55 56 57 57 58 58 58 57 57 57 56 55 54 54 53 53 52 51 50 49 48 46 46 45 45 45 44 44 44 45 45 45 44 43 43 42 41 40 39 39 38 37 37 36 36 36 36 36 36
50 51 51 52 52 52 52 53 52 52 52 53 53 53 53 53 54 54 55 55 56 56 57 57 57 57 57 56 56 55 55 54 54 53 52 51 51 50 49 48 46 45 45 45 44 44 44 44 44 44 44 44 43 42 41 41 40 39 38 38 37 36 36 35 35 35 35 35 35
51 51 52 52 52 53 53 53 53 53 53 53 53 53 53 54 54 55 56 56 57 57 57 57 57 56 56 55 55 54 54 53 53 52 51 50 49 49 48 47 46 45 44 44 44 44 44 44 44 44 44 43 42 41 40 39 39 38 37 37 36 35 34 34 33 33 34 34 34
51 52 52 52 53 53 53 53 53 53 53 53 53 54 54 55 55 55 56 57 57 57 57 57 56 56 55 54 54 53 52 52 51 51 50 49 48 47 47 46 45 45 44 44 44 44 44 44 44 43 43 42 40 39 38 38 37 36 36 35 34 34 33 33 33 32 32 32 32
51 52 52 53 53 53 53 53 53 53 53 53 54 54 55 55 56 56 56 56 57 57 57 56 55 54 54 53 53 52 51 50 50 49 49 48 47 46 46 46 45 44 44 44 44 44 44 43 43 42 41 40 39 38 37 36 35 35 34 34 33 33 33 32 32 32 31 31 31
52 52 52 53 53 53 53 53 53 53 53 54 54 54 55 55 56 56 56 56 56 56 56 55 54 53 53 52 51 51 50 49 48 48 47 47 46 46 45 45 45 44 44 44 44 43 43 42 42 41 40 39 38 37 36 35 34 34 33 32 32 32 32 31 31 30 30 30 30
52 52 52 52 53 53 53 53 53 53 54 54 55 55 55 56 56 56 56 56 55 55 54 54 53 52 51 51 50 50 49 48 47 47 46 46 45 45 45 45 45 44 44 43 43 43 42 41 41 40 39 37 36 36 35 34 33 33 32 32 31 31 31 30 29 28 28 28 29
52 52 52 52 52 52 53 53 53 53 54 54 55 55 56 56 56 56 55 55 54 53 53 52 52 51 50 49 49 48 48 47 46 46 45 45 45 45 44 44 44 44 43 43 42 42 41 40 39 39 37 36 35 34 34 33 32 32 31 31 30 29 28 27 26 26 26 27 28
52 52 52 52 52 52 53 53 54 54 54 54 55 55 55 56 55 55 55 54 53 52 51 51 50 50 49 48 48 47 47 47 46 45 44 44 44 44 44 44 44 43 43 42 41 41 40 39 38 37 36 35 34 33 32 32 31 31 30 29 28 27 26 25 25 25 26 27 27
Wind_Direction
316 316 316 315 315 315 314 314 313 313 312 312 311 310 309 309 308 307 306 306 305 304 303 303 302 302 301 301 300 299 299 298 298 297 296 296 295 295 294 293 293 292 291 291 290 290 289 288 287 287 286 286 285 285 284 284 284 283 283 283 283 283 282 282 282 282 282 282 282
316 315 315 315 315 314 314 313 313 312 312 311 311 310 309 309 308 307 307 306 305 305 304 303 303 302 302 301 301 300 300 299 299 298 297 297 296 295 295 294 293 292 292 291 290 290 289 288 288 287 286 286 285 285 284 284 284 283 283 283 283 283 283 282 282 282 282 282 282
315 315 315 314 314 314 313 313 312 312 311 311 310 310 309 309 308 307 307 306 306 305 304 304 303 303 302 302 302 301 301 300 300 299 298 298 297 296 295 295 294 293 292 291 291 290 289 289 288 287 287 286 286 285 285 284 284 284 283 283 283 283 283 283 283 283 283 283 282
315 314 314 314 313 313 313 312 312 311 311 311 310 310 309 309 308 307 307 306 306 305 304 304 303 303 303 302 302 302 301 301 300 300 299 298 298 297 296 296 295 294 293 292 291 290 290 289 288 288 287 287 286 286 285 285 285 284 284 284 284 284 284 284 283 283 283 283 283
314 314 313 313 313 312 312 312 311 311 311 311 310 310 309 308 308 307 307 306 305 305 304 304 303 303 303 302 302 302 301 301 300 300 299 299 298 298 297 296 296 295 294 293 292 291 291 290 289 289 288 287 287 287 286 286 285 285 285 285 284 284 284 284 284 284 284 284 284
313 313 313 312 312 312 312 311 311 311 311 310 310 309 309 308 307 307 306 305 305 304 304 304 303 303 302 302 302 302 301 301 301 300 300 299 299 298 298 297 297 296 295 295 294 293 292 291 290 289 289 288 288 287 287 286 286 286 285 285 285 285 285 285 285 285 284 284 284
313 312 312 312 312 312 311 311 311 310 310 310 309 309 308 307 307 306 306 305 305 304 304 304 303 303 303 302 302 302 302 301 301 301 300 300 299 299 299 298 297 297 296 295 295 294 293 292 291 290 290 289 289 288 287 287 287 286 286 286 286 286 285 285 285 285 285 285 285
312 312 312 312 311 311 311 311 311 310 310 309 309 308 308 307 306 306 306 305 305 304 304 304 304 303 303 303 303 302 302 302 301 301 301 300 300 299 299 299 298 297 297 296 295 294 293 292 291 291 290 290 289 289 288 287 287 287 286 286 286 286 286 286 286 286 286 286 285
312 312 312 312 311 311 311 311 310 310 309 309 308 308 307 307 306 306 306 305 305 305 305 304 304 304 303 303 303 303 302 302 302 301 301 301 300 300 299 299 298 298 297 296 295 294 293 292 292 291 290 290 289 289 289 288 288 287 287 287 287 287 287 287 287 287 286 286 286
312 312 312 311 311 311 311 310 310 310 309 309 308 308 307 307 307 306 306 306 306 305 305 305 304 304 304 304 303 303 303 302 302 302 301 301 300 300 299 299 298 298 297 296 295 294 293 293 292 291 291 290 290 289 289 288 288 288 288 288 288 287 287 287 287 287 287 286 286
312 312 312 311 311 311 311 310 310 310 309 309 308 308 308 308 307 307 307 306 306 306 305 305 305 305 304 304 304 303 303 303 302 302 301 301 300 300 299 299 298 297 297 296 295 295 294 293 292 292 291 290 290 290 289 289 289 288 288 288 288 288 288 287 287 287 287 286 286
312 312 311 311 311 311 311 310 310 310 309 309 309 309 308 308 308 307 307 307 307 306 306 306 305 305 305 304 304 304 303 303 302 302 302 301 301 300 299 299 298 297 297 296 295 295 294 293 293 292 292 291 291 290 290 290 290 289 289 289 288 288 288 288 287 287 287 286 286
312 311 311 311 311 311 311 310 310 310 310 309 309 309 309 309 308 308 308 307 307 307 307 306 306 306 305 305 304 304 304 303 303 302 302 301 301 300 299 299 298 297 297 296 296 295 294 294 293 293 292 292 292 291 291 291 290 290 289 289 289 288 288 288 287 287 287 286 285
312 311 311 311 311 311 311 311 310 310 310 310 310 309 309 309 309 309 308 308 308 307 307 307 306 306 306 305 305 304 304 303 303 302 302 301 301 300 300 299 298 298 297 297 296 295 295 294 294 294 293 293 292 292 291 291 291 290 290 289 289 288 288 288 287 287 286 286 285
312 311 311 311 311 311 311 311 311 311 310 310 310 310 310 310 309 309 309 308 308 308 307 307 307 306 306 306 305 305 304 304 303 302 302 301 301 300 300 299 299 298 298 297 297 296 296 295 295 294 294 293 293 293 292 292 291 291 290 290 289 289 288 288 287 287 286 286 285
312 312 312 312 311 311 311 311 311 311 311 311 311 310 310 310 310 310 309 309 309 308 308 307 307 307 306 306 305 305 304 304 303 303 302 302 301 301 300 300 299 299 298 298 297 297 296 296 296 295 295 294 294 293 293 292 292 291 290 290 289 289 288 288 287 287 286 286 285
312 312 312 312 312 311 311 311 311 311 311 311 311 311 311 310 310 310 309 309 309 308 308 308 307 307 306 306 305 305 304 304 303 303 302 302 301 301 301 300 300 299 299 298 298 298 297 297 296 296 295 295 294 294 293 293 292 291 291 290 290 289 289 288 288 287 287 286 285
312 312 312 312 312 312 312 312 312 312 311 311 311 311 311 311 310 310 310 309 309 308 308 308 307 307 306 306 305 305 304 304 303 303 302 302 302 301 301 301 300 300 300 299 299 299 298 298 297 297 296 296 295 294 294 293 292 292 291 291 290 289 289 289 288 287 287 286 286
312 312 312 312 312 312 312 312 312 312 312 312 311 311 311 311 310 310 310 309 309 308 308 308 307 307 306 306 305 305 304 304 304 303 303 303 302 302 302 301 301 301 301 300 300 300 299 299 298 298 297 296 296 295 294 293 293 292 292 291 290 290 289 289 288 288 287 287 286
312 312 312 312 312 312 312 312 312 312 312 312 311 311 311 311 310 310 310 309 309 308 308 308 307 307 306 306 305 305 305 304 304 304 303 303 303 303 303 302 302 302 302 301 301 301 300 300 299 298 297 297 296 295 294 294 293 292 292 291 291 290 290 289 288 288 287 287 286
313 313 313 313 313 312 312 312 312 312 312 312 311 311 311 311 310 310 309 309 309 308 308 308 307 307 306 306 306 305 305 305 304 304 304 304 304 304 303 303 303 303 303 302 302 301 301 300 299 299 298 297 296 295 295 294 293 293 292 291 291 290 290 290 289 289 288 287 286
313 313 313 313 313 312 312 312 312 312 312 311 311 311 311 310 310 310 309 309 309 309 308 308 307 307 307 306 306 306 305 305 305 305 305 305 305 304 304 304 304 304 303 303 303 302 301 301 300 299 298 297 297 296 295 294 293 293 292 292 291 291 290 290 290 289 288 288 287
313 313 313 313 312 312 312 312 312 312 312 311 311 311 311 310 310 310 310 309 309 309 308 308 308 307 307 306 306 306 306 306 305 305 305 305 305 305 305 305 305 305 304 304 303 303 302 302 301 300 299 298 297 296 295 294 294 293 292 292 291 291 291 290 290 289 289 288 287
313 312 312 312 312 312 312 312 312 312 312 311 311 311 311 310 310 310 310 309 309 309 308 308 308 307 307 307 306 306 306 306 306 306 306 306 306 306 306 306 306 305 305 305 304 304 303 302 302 301 300 299 298 297 296 295 294 294 293 292 292 291 291 291 290 289 288 287 286
312 312 312 312 312 312 312 312 312 312 312 311 311 311 311 310 310 310 310 310 309 309 309 308 308 307 307 307 307 307 307 307 307 307 307 307 307 307 307 307 306 306 306 305 305 304 303 303 302 301 300 299 298 297 296 295 295 294 293 293 292 292 292 291 290 289 288 286 285
312 312 312 312 312 312 312 312 312 312 312 311 311 311 311 311 310 310 310 310 309 309 309 308 308 308 308 307 307 307 307 307 307 307 307 307 307 307 307 307 307 307 306 306 305 304 304 303 302 301 300 299 298 297 296 296 295 295 294 293 293 292 292 291 290 289 288 287 286
312 311 311 312 312 312 312 312 312 312 312 312 311 311 311 311 310 310 310 310 309 309 309 309 308 308 308 308 308 308 308 308 308 308 308 308 308 308 307 307 307 307 306 306 305 305 304 303 302 300 300 299 298 297 297 296 296 295 295 294 294 293 293 292 291 289 288 287 287
311 311 311 312 312 312 312 312 312 312 312 312 311 311 311 311 310 310 310 310 309 309 309 309 309 309 309 308 308 308 308 308 308 308 308 308 308 308 308 307 307 307 306 306 305 305 304 303 302 301 300 299 299 298 297 297 297 296 296 295 295 294 293 292 291 290 288 288 287
311 311 311 312 312 312 312 312 312 312 312 312 311 311 311 311 310 310 310 310 310 309 309 309 309 309 309 309 309 309 309 309 309 308 308 308 308 308 308 307 307 307 306 306 305 305 304 303 302 301 300 300 299 299 298 298 297 297 296 296 295 294 293 292 291 289 288 288 287
311 311 312 312 312 312 312 312 312 312 312 312 312 311 311 311 310 310 310 310 310 309 309 309 309 309 309 309 309 309 309 309 309 308 308 308 308 308 308 307 307 307 307 306 306 305 304 303 303 302 301 300 299 299 298 298 297 297 296 296 295 294 293 292 291 289 288 287 287
312 312 312 312 312 312 312 312 312 312 312 312 312 311 311 311 310 310 310 310 310 310 310 310 310 309 309 309 309 309 309 309 309 308 308 308 308 308 308 308 307 307 307 306 306 305 304 303 303 302 301 300 300 299 299 298 298 297 296 296 295 294 293 292 291 289 289 288 288
312 312 312 312 312 312 312 312 312 312 312 312 312 311 311 311 310 310 310 310 310 310 310 310 310 310 310 310 309 309 309 309 309 308 308 308 308 308 308 308 308 307 307 306 306 305 304 303 302 302 301 300 300 299 299 298 298 297 297 296 296 295 294 293 292 290 290 290 290
312 312 312 312 312 312 312 312 312 312 312 312 312 311 311 311 310 310 310 310 310 310 310 310 310 310 310 310 309 309 309 309 308 308 308 308 308 308 308 308 308 307 307 306 305 305 304 303 302 302 301 300 300 299 299 299 298 298 297 297 296 295 294 292 291 290 290 289 289
312 312 312 312 312 312 313 313 313 312 312 312 311 311 311 311 310 310 310 310 310 310 310 310 310 310 310 310 309 309 309 309 309 309 309 309 309 308 308 308 308 307 307 306 305 304 304 303 302 302 301 301 300 300 299 299 299 298 297 297 296 294 293 292 290 289 289 289 289
312 312 312 312 313 313 313 313 312 312 312 312 311 311 311 311 311 311 311 311 311 311 311 311 310 310 310 309 309 309 309 309 309 309 309 309 309 308 308 308 307 307 306 305 305 304 304 303 303 302 302 301 301 300 300 299 299 298 297 296 295 294 292 291 290 290 289 290 290
313 313 313 313 313 313 313 313 312 312 312 311 311 311 311 311 311 311 311 311 311 311 311 311 310 310 310 309 309 309 309 309 309 309 309 309 309 308 308 307 307 307 306 306 305 305 304 304 303 303 302 302 301 301 300 300 299 298 297 296 294 293 292 291 290 290 290 291 291
313 313 313 313 313 313 312 312 312 312 312 311 311 311 311 311 311 311 312 312 312 311 311 311 310 310 310 310 310 310 309 309 309 309 309 309 308 308 308 307 307 307 306 306 306 305 305 304 304 303 303 302 302 301 301 300 299 298 297 295 294 293 292 291 291 291 291 291 291
313 313 313 313 313 312 312 312 312 312 312 311 311 311 312 312 312 312 312 312 312 311 311 311 310 310 310 310 310 310 310 310 309 309 309 309 308 308 307 307 307 307 307 307 306 306 305 305 304 304 303 303 302 302 301 300 299 298 296 295 294 293 293 292 292 292 292 292 292
313 313 313 313 312 312 312 312 312 312 312 312 312 312 312 312 312 313 313 312 312 311 311 311 311 310 311 310 310 310 310 310 309 309 309 308 308 308 308 307 307 307 307 307 307 306 306 305 305 304 303 303 302 302 301 300 299 297 296 295 294 294 294 293 293 293 294 293 293
313 313 313 313 312 312 312 312 312 312 312 312 312 312 312 313 313 313 313 313 312 312 311 311 311 311 311 311 311 310 310 310 309 309 308 308 308 308 308 308 308 308 308 308 307 307 306 305 305 304 304 303 303 302 301 300 298 297 296 295 295 295 295 295 295 295 295 295 295
313 313 313 313 312 312 312 312 312 312 312 312 312 313 313 313 313 313 313 313 312 312 312 311 311 311 311 311 311 310 310 309 309 309 308 308 308 308 309 309 309 309 308 308 308 307 306 306 305 304 304 303 302 302 301 300 298 297 296 295 295 296 296 297 297 297 297 297 298